Weather History for Opa Locka, FL

Change the Weather History Date:

Tuesday, January 1, 2013

  Actual Average Record
Temperature  
Mean Temperature 74 °F -  
Max Temperature 79 °F 78 °F 88 °F (1982)
Min Temperature 66 °F 62 °F 40 °F (1949)
Cooling Degree Days 8    
Growing Degree Days 24 (Base 50)    
Moisture  
Dew Point 59 °F    
Average Humidity 64    
Maximum Humidity 87    
Minimum Humidity 52    
Precipitation  
Precipitation 0.00 in - - ()
Sea Level Pressure  
Sea Level Pressure 30.13 in    
Wind  
Wind Speed 8 mph (SE)    
Max Wind Speed 16 mph    
Max Gust Speed 24 mph    
Visibility 10 miles    
Events      
Averages and records for this station are not official NWS values.
T = Trace of Precipitation, MM = Missing Value Source: NWS Daily Summary

Daily Weather History Graph

Daily Weather History Graph

Search for Another Location

Airport:

Trip Planner

Search our weather history database for the weather conditions in past years. The results will help you decide how hot, cold, wet, or windy it might be!

Date:

Astronomy

Jan. 01, 2013 Rise Set
Actual Time 7:08 AM EST 5:41 PM EST
Civil Twilight 6:43 AM EST 6:06 PM EST
Nautical Twilight 6:14 AM EST 6:35 PM EST
Astronomical Twilight 5:46 AM EST 7:03 PM EST
Moon 9:43 PM EST (1/1) 9:44 AM EST (1/1)
Length of Visible Light 11h 23m
Length of Day
10h 33m
Waning Gibbous, 83% of the Moon is Illuminated
Jan 1
Waning Gibbous
Jan 4
Last Quarter
Jan 11
New
Jan 18
First Quarter
Jan 26
Full

Hourly Weather History & Observations

Time (EST) Temp. Dew Point Humidity Pressure Visibility Wind Dir Wind Speed Gust Speed Precip Events Conditions
12:53 AM 71.1 °F 57.0 °F 61% 30.19 in 10.0 mi ESE 8.1 mph - N/A   Overcast
1:53 AM 69.8 °F 57.2 °F 64% 30.19 in 10.0 mi ESE 6.9 mph - N/A   Mostly Cloudy
2:53 AM 69.1 °F 57.9 °F 68% 30.18 in 10.0 mi ESE 3.5 mph - N/A   Mostly Cloudy
3:53 AM 70.0 °F 57.0 °F 63% 30.18 in 10.0 mi ESE 5.8 mph - N/A   Overcast
4:53 AM 69.1 °F 57.9 °F 68% 30.17 in 10.0 mi ESE 6.9 mph - N/A   Overcast
5:53 AM 70.0 °F 57.0 °F 63% 30.15 in 10.0 mi ESE 8.1 mph - N/A   Overcast
6:53 AM 69.8 °F 57.2 °F 64% 30.15 in 10.0 mi SE 5.8 mph - N/A   Overcast
7:53 AM 72.0 °F 57.9 °F 61% 30.16 in 10.0 mi ESE 8.1 mph - N/A   Overcast
8:53 AM 73.9 °F 57.9 °F 57% 30.18 in 10.0 mi SSE 11.5 mph - N/A   Overcast
9:53 AM 75.9 °F 59.0 °F 56% 30.18 in 10.0 mi SE 13.8 mph - N/A   Overcast
10:53 AM 77.0 °F 59.0 °F 54% 30.17 in 10.0 mi SSE 16.1 mph - N/A   Overcast
11:53 AM 78.1 °F 59.0 °F 52% 30.15 in 10.0 mi South 13.8 mph 24.2 mph N/A   Scattered Clouds
12:53 PM 77.0 °F 60.1 °F 56% 30.11 in 10.0 mi SSE 13.8 mph 24.2 mph N/A   Overcast
1:53 PM 79.0 °F 60.1 °F 52% 30.08 in 10.0 mi SSE 16.1 mph - N/A   Mostly Cloudy
2:53 PM 78.1 °F 60.1 °F 54% 30.07 in 10.0 mi South 12.7 mph 20.7 mph N/A   Overcast
3:53 PM 77.0 °F 61.0 °F 58% 30.07 in 10.0 mi South 11.5 mph - N/A   Overcast
4:53 PM 75.9 °F 61.0 °F 60% 30.07 in 10.0 mi SSE 11.5 mph - N/A   Overcast
5:53 PM 73.0 °F 61.0 °F 66% 30.07 in 10.0 mi SSE 8.1 mph - N/A   Mostly Cloudy
6:53 PM 71.1 °F 60.1 °F 68% 30.08 in 10.0 mi Calm Calm - N/A   Mostly Cloudy
7:53 PM 69.1 °F 60.1 °F 73% 30.09 in 10.0 mi Calm Calm - N/A   Mostly Cloudy
8:53 PM 71.1 °F 62.1 °F 73% 30.10 in 10.0 mi Calm Calm - N/A   Overcast
9:53 PM 69.1 °F 63.0 °F 81% 30.10 in 10.0 mi Calm Calm - N/A   Overcast
10:53 PM 68.0 °F 62.1 °F 81% 30.09 in 10.0 mi Calm Calm - N/A   Overcast
11:53 PM 66.0 °F 62.1 °F 87% 30.08 in 10.0 mi Calm Calm - N/A   Clear